Weather History for Easton, MD

Change the Weather History Date:

Wednesday, February 6, 2013

  Actual Average Record
Temperature  
Mean Temperature 36 °F -  
Max Temperature 44 °F 43 °F 60 °F (1960)
Min Temperature 27 °F 24 °F 5 °F (1966)
Degree Days  
Heating Degree Days 30    
Moisture  
Dew Point 29 °F    
Average Humidity 87    
Maximum Humidity 100    
Minimum Humidity 49    
Precipitation  
Precipitation 0.00 in - - ()
Sea Level Pressure  
Sea Level Pressure 30.14 in    
Wind  
Wind Speed 2 mph (North)    
Max Wind Speed 17 mph    
Max Gust Speed 23 mph    
Visibility 7 miles    
Events      
Averages and records for this station are not official NWS values.
T = Trace of Precipitation, MM = Missing Value Source: NWS Daily Summary

Daily Weather History Graph

Daily Weather History Graph

Search for Another Location

Airport:

Trip Planner

Search our weather history database for the weather conditions in past years. The results will help you decide how hot, cold, wet, or windy it might be!

Date:

Astronomy

Feb. 06, 2013 Rise Set
Actual Time 7:05 AM EST 5:31 PM EST
Civil Twilight 6:37 AM EST 5:59 PM EST
Nautical Twilight 6:05 AM EST 6:31 PM EST
Astronomical Twilight 5:34 AM EST 7:02 PM EST
Moon 3:45 AM EST (2/6) 1:49 PM EST (2/6)
Length of Visible Light 11h 22m
Length of Day
10h 26m
Waning Crescent, 17% of the Moon is Illuminated
Feb 6
Waning Crescent
Feb 10
New
Feb 17
First Quarter
Feb 25
Full
Mar 4
Last Quarter

Hourly Weather History & Observations

Time (EST) Temp. Windchill Dew Point Humidity Pressure Visibility Wind Dir Wind Speed Gust Speed Precip Events Conditions
12:19 AM 31.6 °F 28.3 °F 31.6 °F 100% 29.97 in 7.0 mi NNE 3.5 mph - N/A   Clear
12:40 AM 32.0 °F - 32.0 °F 100% 29.98 in 7.0 mi Calm Calm - N/A   Scattered Clouds
1:02 AM 31.1 °F - 31.1 °F 100% 29.99 in 7.0 mi Calm Calm - N/A   Scattered Clouds
1:23 AM 30.7 °F - 30.7 °F 100% 29.99 in 5.0 mi Calm Calm - N/A   Scattered Clouds
1:44 AM 30.7 °F - 30.7 °F 100% 29.98 in 7.0 mi Calm Calm - N/A   Mostly Cloudy
2:06 AM 29.3 °F - 29.3 °F 100% 29.99 in 5.0 mi Calm Calm - N/A   Scattered Clouds
2:27 AM 29.5 °F - 29.5 °F 100% 29.99 in 5.0 mi Calm Calm - N/A   Scattered Clouds
2:48 AM 30.0 °F - 30.0 °F 100% 29.99 in 5.0 mi Calm Calm - N/A   Scattered Clouds
3:10 AM 29.1 °F - 29.1 °F 100% 29.99 in 5.0 mi Calm Calm - N/A   Mostly Cloudy
3:31 AM 29.1 °F - 29.1 °F 100% 29.99 in 5.0 mi Calm Calm - N/A   Overcast
3:52 AM 29.5 °F - 29.5 °F 100% 30.00 in 5.0 mi Calm Calm - N/A   Overcast
4:14 AM 30.6 °F - 30.6 °F 100% 30.00 in 5.0 mi Calm Calm - N/A   Overcast
4:35 AM 30.2 °F 25.4 °F 30.2 °F 100% 30.01 in 5.0 mi NE 4.6 mph - N/A   Mostly Cloudy
4:56 AM 31.6 °F 27.0 °F 31.6 °F 100% 30.02 in 5.0 mi NNE 4.6 mph - N/A   Mostly Cloudy
5:18 AM 31.1 °F - 31.1 °F 100% 30.03 in 5.0 mi Calm Calm - N/A   Overcast
5:39 AM 32.0 °F - 32.0 °F 100% 30.05 in 5.0 mi Calm Calm - N/A   Mostly Cloudy
5:50 AM 30.2 °F - 30.2 °F 100% 30.05 in 5.0 mi North - - N/A   Mostly Cloudy
6:00 AM 31.6 °F - 31.6 °F 100% 30.06 in 5.0 mi Calm Calm - N/A   Mostly Cloudy
6:22 AM 32.0 °F - 32.0 °F 100% 30.08 in 5.0 mi Calm Calm - N/A   Mostly Cloudy
6:40 AM 31.8 °F - 31.8 °F 100% 30.09 in 5.0 mi Calm Calm - N/A   Mostly Cloudy
6:50 AM 32.0 °F - 32.0 °F 100% 30.10 in 5.0 mi Calm Calm - N/A   Overcast
7:50 AM 33.8 °F - 33.8 °F 100% 30.14 in 4.0 mi Calm Calm - N/A   Scattered Clouds
9:50 AM 39.2 °F 33.0 °F 32.0 °F 75% 30.19 in 10.0 mi North 9.2 mph - N/A   Clear
11:53 AM 44.6 °F 38.8 °F 30.2 °F 57% 30.21 in 10.0 mi North 11.5 mph 20.7 mph N/A   Partly Cloudy
12:50 PM 41.0 °F 33.9 °F 28.4 °F 61% 30.22 in 10.0 mi NNW 12.7 mph 23.0 mph N/A   Mostly Cloudy
1:53 PM 44.6 °F 37.2 °F 28.4 °F 53% 30.23 in 10.0 mi NW 17.3 mph 23.0 mph N/A   Partly Cloudy
2:52 PM 44.6 °F 39.2 °F 26.6 °F 49% 30.23 in 10.0 mi North 10.4 mph - N/A   Partly Cloudy
3:50 PM 44.6 °F 38.4 °F 26.6 °F 49% 30.23 in 10.0 mi NNW 12.7 mph 17.3 mph N/A   Clear
4:46 PM 41.0 °F 34.3 °F 26.6 °F 57% 30.26 in 10.0 mi North 11.5 mph - N/A   Clear
5:46 PM 39.2 °F 35.0 °F 26.6 °F 61% 30.29 in 10.0 mi North 5.8 mph - N/A   Clear
6:50 PM 37.4 °F 34.9 °F 26.6 °F 65% 30.32 in 10.0 mi North 3.5 mph - N/A   Clear
8:45 PM 32.0 °F - 24.8 °F 75% 30.36 in 10.0 mi Calm Calm - N/A   Clear
10:02 PM 30.7 °F - 24.6 °F 78% 30.39 in 10.0 mi Calm Calm - N/A   Clear
10:22 PM 29.5 °F - 24.8 °F 83% 30.39 in 10.0 mi Calm Calm - N/A   Clear
10:42 PM 28.6 °F - 24.8 °F 86% 30.39 in 10.0 mi Calm Calm - N/A   Clear
11:02 PM 27.9 °F - 24.4 °F 87% 30.39 in 10.0 mi Calm Calm - N/A   Clear
11:22 PM 27.1 °F - 23.9 °F 88% 30.40 in 10.0 mi Calm Calm - N/A   Clear
11:42 PM 28.8 °F - 24.4 °F 84% 30.39 in 10.0 mi Calm Calm - N/A   Clear